Location: M.A.R.S.Observatory
(35.4031°N, 81.5481°W)
Time: 21:51:41
(UTC-04:00)

Daily predictions for brighter satellites

Satellite Brightness Start Highest point End
(mag) Time Altitude Azimuth Time Altitude Azimuth Time Altitude Azimuth
GPS 2-04 Rocket1 4.1 21:12:32 10° W 21:16:26 31° SSW 21:20:17 10° SE
OAO 2 Rocket 4.2 21:12:08 10° SW 21:16:50 32° SSE 21:21:33 10° E
Cosmos 1908 4.4 21:17:00 10° NNE 21:20:22 27° ENE 21:23:42 10° SE
Cosmos 2266 Rocket 4.4 21:17:36 10° SSE 21:23:33 45° E 21:29:25 10° NNE
Cosmos 1151 Rocket 4.1 21:20:33 10° NNE 21:24:19 28° ENE 21:28:04 10° SE
Cosmos 1674 3.3 21:22:11 10° SSE 21:25:42 37° E 21:29:17 10° NNE
Cosmos 2292 4.5 21:22:59 10° N 21:25:58 53° E 21:29:21 10° SSE
ALOS 2.9 21:23:17 10° S 21:27:52 58° W 21:32:29 10° NNW
Cosmos 371 Rocket 3.5 21:23:31 10° NNW 21:28:19 71° WSW 21:33:04 10° S
Cosmos 405 4.1 21:25:38 10° NNE 21:28:48 28° ENE 21:31:43 11° SE
Cosmos 1553 Rocket 4.1 21:24:16 10° N 21:30:41 82° E 21:36:59 10° S
H-2A R/B 3.8 21:32:05 10° SSW 21:34:53 22° SE 21:41:54 10° E
Cosmos 1680 Rocket 4.4 21:30:14 10° N 21:35:00 34° ENE 21:39:11 13° SE
Cosmos 1538 Rocket 4.2 21:30:09 10° NNW 21:35:30 77° WSW 21:40:51 10° S
OTV 4 2.3 21:36:17 10° S 21:37:56 14° SSE 21:37:59 14° SSE
Cosmos 1833 4.2 21:32:58 10° SSW 21:38:41 88° ESE 21:44:24 10° NNE
USA 229 DEB 4.2 21:32:11 10° SW 21:39:02 66° WNW 21:46:00 10° NNE
USA 229 4.2 21:32:16 10° SW 21:39:08 66° WNW 21:46:06 10° NNE
Cosmos 923 Rocket 4.3 21:34:35 10° N 21:39:39 50° ENE 21:44:04 13° SE
Tiangong 1 1.0 21:36:58 10° SW 21:40:02 59° SSE 21:43:06 10° ENE
YAOGAN 11 4.5 21:40:06 10° S 21:44:21 64° WSW 21:48:41 10° NNW
Meteor 2-20 4.4 21:39:19 10° S 21:45:28 84° E 21:51:37 10° N
Hubble Space Telescope 2.9 21:44:24 10° S 21:45:05 11° SSE 21:45:05 11° SSE
H-2A R/B 4.5 21:44:17 10° SSW 21:47:42 31° W 21:51:07 10° NW
Cosmos 1939 Rocket 2.8 21:45:33 12° SSE 21:49:08 67° ENE 21:53:01 10° N
H-2A R/B 2.2 21:45:08 11° SSE 21:49:31 73° ENE 21:54:02 10° N
ATLAS CENTAUR R/B 3.8 21:49:05 10° WNW 21:51:59 18° WSW 21:54:44 10° SSW
Cosmos 773 Rocket 4.0 21:47:07 10° NNW 21:52:21 86° ENE 21:57:03 13° SSE
Cosmos 1328 Rocket 4.5 21:49:32 10° NNW 21:53:50 49° W 21:58:05 10° SSW
Cosmos 1437 Rocket 2.8 21:50:27 10° N 21:54:17 80° W 21:57:55 11° S
SPOT 5 3.1 21:53:21 17° SE 21:56:39 50° ENE 22:01:16 10° N
COSMOS 2428 3.8 21:52:48 10° N 21:57:48 31° ENE 22:01:17 17° ESE
NOSS 3-1 (A) 3.6 21:53:16 10° S 21:58:41 44° ESE 22:04:34 10° NE
PSLV R/B 3.7 22:00:36 26° SE 22:01:52 41° ENE 22:04:47 10° N
ARGOS 4.3 21:59:31 17° ESE 22:02:33 28° ENE 22:07:03 10° NNE
Cosmos 2219 Rocket 3.9 22:02:05 10° NNE 22:05:51 18° NE 22:08:52 12° E
Cosmos 304 Rocket 3.7 22:01:28 10° NNW 22:06:17 73° ENE 22:09:26 21° SSE
Nadezhda 2 Rocket 4.4 22:01:59 10° S 22:08:04 70° E 22:14:09 10° NNE
Cosmos 1437 3.6 22:14:57 10° SSW 22:18:08 50° W 22:21:21 10° N
Cosmos 1328 3.9 22:15:23 12° SSW 22:19:05 74° W 22:23:02 10° N
ATLAS 2AS CENTAUR R/B 3.7 22:18:20 22° SE 22:21:06 28° ESE 22:27:27 10° NE
Cosmos 1726 3.0 22:19:18 10° NNE 22:22:45 33° E 22:23:25 31° ESE
Envisat 3.3 22:19:28 15° S 22:23:36 63° W 22:28:39 10° NNW
ERS-1 Rocket 4.4 22:20:13 10° SSW 22:24:46 35° W 22:29:22 10° NNW
Cosmos 2219 3.6 22:21:44 10° SSW 22:27:27 68° WNW 22:33:11 10° NNE
Delta 2 Rocket 2.7 22:27:16 10° W 22:30:51 84° N 22:31:53 42° E
BREEZE M DEB (TANK) 4.3 22:33:41 10° WSW 22:35:24 16° SSW 22:35:24 16° SSW
Cosmos 2237 Rocket 3.8 22:33:09 10° N 22:37:30 22° ENE 22:39:42 18° E
Cosmos 2082 4.3 22:38:00 32° SE 22:38:59 34° ESE 22:44:05 10° NE
Cosmos 2322 4.2 22:34:04 10° NNW 22:39:37 54° WSW 22:43:02 23° S
SL-23 DEB 3.7 22:35:14 10° NW 22:39:48 68° NE 22:40:32 50° E
Cosmos 1271 Rocket 3.5 22:36:24 10° NNE 22:39:56 34° ENE 22:40:05 34° E
Cosmos 2112 Rocket 4.2 22:35:27 10° NNW 22:40:38 66° WSW 22:43:24 28° S
Cosmos 1703 3.6 22:41:15 44° E 22:41:21 44° E 22:45:05 10° NNE
SL-14 R/B 3.2 22:40:06 38° S 22:41:33 89° W 22:45:34 10° N
Cosmos 1937 Rocket 3.5 22:41:23 31° S 22:43:49 62° ESE 22:48:58 10° NNE
Terra 3.0 22:43:25 25° E 22:44:19 27° ENE 22:48:17 10° NNE
NOSS 3-1 (C) 3.9 22:39:32 10° SW 22:45:16 61° NW 22:51:35 10° NNE
Cosmos 2298 Rocket 4.2 22:40:09 10° SSW 22:45:28 75° WNW 22:50:48 10° NNE
Meteor 1-4 Rocket 3.1 22:41:54 10° N 22:45:29 43° ENE 22:45:29 43° ENE
Cosmos 2242 Rocket 3.9 22:41:33 10° N 22:45:56 51° E 22:46:44 45° ESE
Iridium 2 4.2 22:47:14 41° E 22:47:14 41° E 22:50:40 10° NNE
MetOp-B 4.4 22:44:55 25° S 22:47:58 63° WSW 22:53:18 10° NNW
Meteor 1-27 4.1 22:42:18 10° N 22:47:59 90° N 22:50:34 34° S
Cosmos 2360 Rocket 3.1 22:43:46 10° NW 22:49:04 43° WSW 22:52:21 21° SSW
NOAA 11 4.1 22:47:19 38° SSE 22:49:28 73° ENE 22:54:55 10° N
Sich 1 3.1 22:48:46 35° SSW 22:50:37 81° W 22:55:02 10° N
USA 245 3.7 22:53:37 37° NW 22:53:37 37° NW 22:55:13 10° NNW
FALCON 9 R/B 4.1 22:20:52 10° W 22:53:52 86° S 23:00:29 15° E
Cosmos 1633 Rocket 3.1 22:52:39 37° SSW 22:54:19 78° W 22:58:42 10° N
Cosmos 990 Rocket 4.0 22:53:45 46° SE 22:54:44 54° ESE 22:59:44 10° NNE
Cosmos 2058 4.2 22:52:03 15° SW 22:55:04 37° W 22:58:54 10° N
DELTA 2 R/B (1) 3.6 22:51:17 10° WNW 22:56:45 61° SSW 22:58:07 46° SSE
DELTA 2 DEB (DPAF) 4.2 22:58:34 53° ESE 22:59:12 60° ENE 23:03:38 10° N
Cosmos 1626 3.4 23:01:03 29° ENE 23:01:03 29° ENE 23:03:26 10° NNE
OAO 2 Rocket 3.3 22:56:04 10° WSW 23:01:22 73° S 23:03:20 39° E
SL-08 RB Rocket 3.6 23:06:50 59° S 23:07:38 80° W 23:12:08 10° NNW
H-2A R/B 2.3 23:08:02 48° ESE 23:09:08 59° ENE 23:14:28 10° N
CZ-4 R/B 4.4 23:05:56 10° N 23:10:46 57° WNW 23:13:19 26° SW
Cosmos 2227 Rocket 2.1 23:11:30 47° S 23:13:09 74° ESE 23:18:48 10° NNE
YAOGAN 6 4.3 23:12:45 25° WSW 23:13:26 26° W 23:16:32 10° NW
Tiangong 1 3.0 23:14:02 10° WNW 23:16:46 28° NNW 23:17:12 27° N
Cosmos 1300 4.2 23:13:44 10° NNW 23:17:06 29° W 23:17:53 27° WSW
SPOT 1/Viking Rocket 4.5 23:19:48 30° SW 23:21:36 41° W 23:26:28 10° NNW
Cosmos 1241 Rocket 4.4 23:22:14 23° SSW 23:26:17 80° WNW 23:32:33 10° NNE
IGS 5A 3.7 23:29:10 65° NNE 23:29:10 65° NNE 23:32:53 10° N
Cosmos 2333 Rocket 2.2 23:24:44 10° NNW 23:30:29 70° ENE 23:31:18 61° ESE
SeaSat 1 4.4 23:29:32 16° ENE 23:30:38 17° NE 23:33:44 10° NNE
SL-16 R/B 3.5 23:26:17 10° N 23:31:02 26° ENE 23:32:01 25° ENE
Cosmos 1125 Rocket 3.9 23:33:30 47° ENE 23:33:30 47° ENE 23:37:59 10° NNE
Cosmos 1455 3.1 23:36:00 10° N 23:38:49 48° NNW 23:38:49 48° NNW
Cosmos 2297 Rocket 2.0 23:39:29 70° S 23:40:11 86° ESE 23:45:52 10° NNE
Nadezhda 1 Rocket 4.0 23:34:53 10° N 23:40:58 75° W 23:42:17 56° SSW
COSMOS 2428 3.9 23:37:00 10° NW 23:41:58 32° WSW 23:43:18 28° SW
ARGOS 4.4 23:41:02 27° SW 23:42:37 32° W 23:47:26 10° NW
Cosmos 2219 Rocket 2.4 23:44:41 10° NNW 23:50:10 58° WSW 23:50:35 56° SW
